TimeEDT,TemperatureF,Dew PointF,Humidity,Sea Level PressureIn,VisibilityMPH,Wind Direction,Wind SpeedMPH,Gust SpeedMPH,PrecipitationIn,Events,Conditions,WindDirDegrees,DateUTC
12:53 AM,66.0,64.0,93,29.98,10.0,Calm,Calm,-,N/A,,Clear,0,2013-05-21 04:53:00
1:53 AM,66.9,64.0,90,29.97,10.0,Calm,Calm,-,N/A,,Clear,0,2013-05-21 05:53:00
2:53 AM,66.0,63.0,90,29.97,10.0,Calm,Calm,-,N/A,,Clear,0,2013-05-21 06:53:00
3:53 AM,64.9,62.1,90,29.97,8.0,Calm,Calm,-,N/A,,Clear,0,2013-05-21 07:53:00
4:53 AM,64.9,63.0,93,29.96,6.0,Calm,Calm,-,N/A,,Clear,0,2013-05-21 08:53:00
5:14 AM,64.4,62.6,94,30.03,5.0,Calm,Calm,-,N/A,,Partly Cloudy,0,2013-05-21 09:14:00
5:53 AM,63.0,61.0,93,29.98,5.0,Calm,Calm,-,N/A,,Clear,0,2013-05-21 09:53:00
6:40 AM,62.6,60.8,94,30.04,2.0,North,3.5,-,N/A,,Partly Cloudy,360,2013-05-21 10:40:00
6:42 AM,62.6,60.8,94,30.04,0.8,North,3.5,-,N/A,,Mist,360,2013-05-21 10:42:00
6:53 AM,62.1,61.0,96,29.99,0.2,Calm,Calm,-,N/A,Fog,Fog,0,2013-05-21 10:53:00
7:36 AM,64.4,62.6,94,30.06,0.5,Calm,Calm,-,N/A,Fog,Fog,0,2013-05-21 11:36:00
7:53 AM,64.9,64.0,97,30.01,0.8,Calm,Calm,-,N/A,,Mist,0,2013-05-21 11:53:00
8:01 AM,66.2,64.4,94,30.06,1.0,Calm,Calm,-,N/A,,Mist,0,2013-05-21 12:01:00
8:05 AM,66.2,66.2,100,30.06,2.0,Calm,Calm,-,N/A,,Partly Cloudy,0,2013-05-21 12:05:00
8:14 AM,66.2,64.4,94,30.06,4.0,Calm,Calm,-,N/A,,Clear,0,2013-05-21 12:14:00
8:53 AM,70.0,66.0,87,30.01,8.0,Calm,Calm,-,N/A,,Clear,0,2013-05-21 12:53:00
9:53 AM,75.0,68.0,79,30.01,10.0,Calm,Calm,-,N/A,,Clear,0,2013-05-21 13:53:00
10:53 AM,78.1,66.9,68,30.01,10.0,Calm,Calm,-,N/A,,Clear,0,2013-05-21 14:53:00
11:53 AM,80.1,66.9,64,30.00,10.0,Calm,Calm,-,N/A,,Clear,0,2013-05-21 15:53:00
12:42 PM,80.6,66.2,61,30.06,10.0,Calm,Calm,-,N/A,,Mostly Cloudy,0,2013-05-21 16:42:00
12:53 PM,80.1,66.9,64,29.99,10.0,Calm,Calm,-,N/A,,Overcast,0,2013-05-21 16:53:00
1:53 PM,82.0,64.0,54,29.98,10.0,Calm,Calm,-,N/A,,Scattered Clouds,0,2013-05-21 17:53:00
2:53 PM,82.0,64.9,56,29.94,10.0,Calm,Calm,-,N/A,,Partly Cloudy,0,2013-05-21 18:53:00
3:53 PM,84.9,64.9,51,29.92,10.0,Variable,3.5,-,N/A,,Mostly Cloudy,0,2013-05-21 19:53:00
4:53 PM,84.9,64.9,51,29.91,10.0,Variable,6.9,-,N/A,,Scattered Clouds,0,2013-05-21 20:53:00
5:53 PM,82.9,64.9,54,29.91,10.0,Variable,4.6,-,N/A,,Partly Cloudy,0,2013-05-21 21:53:00
6:53 PM,80.1,66.0,62,29.91,10.0,South,11.5,18.4,N/A,,Clear,190,2013-05-21 22:53:00
7:53 PM,77.0,66.0,69,29.92,10.0,South,4.6,-,N/A,,Clear,180,2013-05-21 23:53:00
8:53 PM,75.0,66.9,76,29.93,10.0,South,8.1,-,N/A,,Partly Cloudy,190,2013-05-22 00:53:00
9:53 PM,73.0,66.0,79,29.94,10.0,SSW,5.8,-,N/A,,Clear,200,2013-05-22 01:53:00
10:53 PM,70.0,64.0,81,29.96,10.0,Calm,Calm,-,N/A,,Clear,0,2013-05-22 02:53:00
11:53 PM,71.1,64.9,81,29.97,10.0,SSW,5.8,-,N/A,,Mostly Cloudy,200,2013-05-22 03:53:00